Theta_e
321 321 321 321 321 321 321 321 322 322 322 322 322 323 322 323 323 323 323 323 323 324 324 324 325 325 325 325 326 325 320 303 303 301 301 302 311 328 332 336 337 334 324 304 304 304 301 299 303 300 301 300 301 301 301 304 299 301 296 288 288 287 287 289 291 290 292 294 294 294 292 295 293 294 297 296 296 293 294 294 295 295 295 298 296 297 299 301
320 320 320 321 321 321 320 321 321 322 322 322 322 322 322 322 323 323 323 323 323 323 323 324 324 325 325 324 325 324 311 304 303 301 303 314 328 334 338 336 336 331 317 305 302 298 300 299 300 297 301 300 301 301 302 302 303 295 289 289 290 286 292 293 291 291 291 294 292 292 290 293 295 296 296 296 294 292 296 296 292 296 298 299 297 297 299 302
319 319 320 320 321 321 320 320 321 321 321 321 322 322 322 322 322 322 323 323 323 323 323 323 324 324 325 325 324 321 310 303 296 296 301 326 335 338 340 336 332 329 308 305 300 299 301 298 298 299 297 297 296 300 300 300 303 295 294 290 288 290 291 291 291 293 293 294 295 295 293 292 293 294 295 296 295 291 294 297 295 294 299 300 299 298 299 300
319 319 320 320 320 320 321 321 321 321 321 321 321 321 321 321 321 322 322 322 322 322 322 323 324 324 323 324 325 313 301 298 295 298 303 323 334 339 340 335 331 314 303 302 300 298 297 298 296 298 297 298 293 298 299 300 299 296 294 291 292 291 292 294 292 294 293 292 294 293 290 291 294 291 294 292 295 297 298 299 299 299 299 300 298 297 298 299
319 319 319 319 320 320 320 320 321 321 321 321 321 321 321 321 321 322 322 322 322 322 322 322 323 324 323 324 321 302 300 292 293 299 301 325 338 338 339 335 325 302 303 299 301 298 298 298 297 295 296 294 294 296 297 297 297 295 296 296 293 290 292 296 293 292 293 290 291 290 292 297 293 291 291 294 294 297 300 298 298 300 301 299 298 296 297 298
319 319 319 319 320 319 320 320 320 320 320 320 321 321 320 321 321 321 321 322 322 322 323 323 323 323 324 323 307 301 298 288 301 301 331 337 337 339 336 329 319 302 303 299 298 298 302 299 298 298 294 294 293 294 292 296 298 295 294 295 296 293 296 294 292 291 291 292 290 292 295 293 294 295 290 294 296 301 304 301 299 298 300 299 297 296 296 298
319 319 319 319 319 319 319 320 320 320 320 320 320 321 320 321 321 321 321 321 322 322 322 322 323 322 322 316 298 299 297 294 296 303 333 336 337 336 329 325 316 303 302 301 300 301 295 296 297 292 290 291 290 292 292 294 296 296 294 290 294 295 296 295 298 289 289 290 295 293 293 295 295 295 292 293 298 301 303 303 300 298 295 294 296 297 298 299
319 318 318 319 318 318 319 320 320 319 319 320 320 320 321 320 321 321 321 321 321 321 322 322 322 322 320 299 303 294 295 297 301 306 332 334 326 325 317 306 304 303 302 301 299 296 295 296 297 292 293 293 291 293 293 295 295 294 294 292 294 293 294 294 292 292 292 292 295 292 294 297 297 295 293 296 298 299 300 301 299 297 295 294 294 297 297 297
320 319 318 319 318 318 319 319 319 319 319 319 320 320 320 320 320 320 320 321 321 320 321 322 321 322 320 298 295 294 294 299 298 305 321 316 311 309 309 309 304 304 299 296 299 298 300 296 295 295 294 291 291 293 291 293 292 294 297 294 291 292 293 293 292 291 291 293 292 292 294 296 295 293 292 297 300 301 300 298 298 295 294 295 295 296 296 296
320 319 318 318 319 319 319 319 319 319 319 320 320 320 320 320 320 320 320 321 320 320 320 321 321 320 303 298 297 293 299 299 305 311 310 310 306 306 303 304 303 300 301 296 296 297 299 293 299 296 293 294 292 293 289 292 292 291 292 292 293 294 292 291 292 291 289 289 289 293 294 295 291 293 293 298 298 297 295 295 293 291 294 295 295 295 295 295
319 319 319 319 319 319 319 319 319 319 319 320 320 320 320 320 320 320 320 320 320 320 321 320 321 313 299 299 295 293 300 305 305 308 307 307 306 305 304 303 302 302 299 295 298 298 297 295 295 296 299 293 292 292 291 292 291 290 291 290 291 290 290 289 287 290 290 294 290 293 293 293 290 290 294 298 295 293 294 295 294 291 293 295 294 293 295 294
319 319 320 320 319 318 318 319 319 319 319 319 319 320 320 320 320 320 320 320 320 320 320 320 319 311 299 295 294 296 301 303 307 305 306 307 303 302 300 301 300 302 300 296 296 298 296 295 297 295 292 294 292 289 290 290 292 290 290 291 289 289 292 293 291 293 290 291 287 291 289 289 290 289 296 298 298 295 293 295 295 294 294 295 295 294 294 295
321 321 320 319 318 317 318 319 319 319 319 319 319 319 320 320 319 319 319 319 320 320 320 320 315 309 298 295 297 301 300 304 304 302 301 301 300 299 298 299 300 297 299 297 296 297 295 297 298 296 295 293 288 291 291 292 290 291 287 288 290 289 289 292 290 285 288 290 287 290 287 285 290 294 296 298 295 292 291 293 294 295 295 295 295 295 295 294
321 320 318 318 317 317 318 318 319 319 319 319 319 319 319 319 319 319 320 319 320 320 320 320 311 304 294 293 295 302 300 302 303 303 302 302 301 302 301 301 300 299 301 299 298 296 296 296 298 296 295 295 293 295 294 287 286 291 288 287 287 286 287 288 288 287 288 288 288 289 287 287 292 294 295 295 293 292 293 294 294 294 295 294 295 295 295 296
321 319 320 318 317 317 317 318 318 319 319 319 319 319 319 319 319 320 320 319 319 320 320 315 302 296 293 297 300 301 313 302 302 302 303 302 299 301 301 300 299 297 298 300 300 297 297 298 298 296 293 293 294 293 289 283 281 283 286 283 280 284 285 288 288 288 290 288 287 290 286 289 292 294 296 293 290 291 291 292 293 293 294 295 295 295 295 297
320 320 320 318 318 318 318 318 318 318 319 319 319 318 319 319 319 319 319 318 319 321 315 304 301 295 293 295 301 317 302 302 301 300 300 302 301 301 299 297 299 298 297 297 298 298 295 297 294 291 294 292 292 286 283 285 283 280 286 284 286 282 284 286 290 285 289 289 288 291 289 285 288 291 293 291 290 290 291 292 293 294 295 295 296 296 296 297
320 320 319 319 318 318 319 318 318 318 318 318 319 319 319 319 318 317 320 320 317 315 306 298 299 299 293 299 302 297 297 300 301 301 301 300 301 299 299 298 297 297 297 297 297 298 294 297 292 292 287 289 285 284 285 283 283 285 283 284 283 284 284 283 286 291 286 288 287 288 286 289 292 292 294 295 293 292 293 294 294 295 295 296 296 296 297 297
321 320 320 320 319 320 319 319 318 318 318 318 318 318 314 318 319 317 314 313 313 310 304 303 299 295 295 298 296 298 298 298 300 298 298 299 299 299 295 295 294 295 296 295 297 295 293 294 290 290 287 288 287 287 283 282 285 283 282 282 284 281 282 286 285 286 288 287 286 284 286 287 290 292 293 294 294 291 292 294 295 295 295 296 296 296 296 297
321 321 320 320 321 320 320 318 318 318 318 319 319 315 315 315 301 301 302 300 295 295 293 295 292 290 290 297 295 294 301 302 299 300 301 300 298 296 296 294 295 297 292 291 292 292 289 289 288 287 286 286 287 288 288 289 288 287 285 285 282 283 284 282 286 289 288 289 288 286 287 289 291 291 292 293 294 292 293 294 294 295 295 296 296 296 296 297
321 321 321 322 321 320 319 319 318 318 318 316 308 300 297 295 290 296 295 298 296 295 296 293 297 291 295 296 297 298 300 300 300 297 301 301 300 298 295 294 293 291 290 290 290 290 291 287 286 285 289 290 290 289 290 291 287 285 285 284 284 284 285 286 288 288 286 286 287 288 289 290 290 291 292 293 294 293 293 293 294 295 296 296 296 297 297 297
321 321 321 321 320 320 320 319 318 318 318 310 300 295 294 291 290 288 291 294 297 295 295 296 297 298 299 297 295 299 299 296 297 299 302 305 300 299 295 293 291 290 288 287 290 290 290 286 286 289 291 291 291 288 287 287 285 285 284 283 285 284 285 289 289 290 286 286 284 285 288 289 290 291 292 294 293 293 294 294 294 295 296 296 297 297 298 298
321 321 321 321 321 320 320 319 319 318 316 299 298 295 293 293 296 296 294 293 295 294 294 297 295 295 298 298 297 297 298 294 295 298 302 301 298 296 293 291 286 291 286 287 288 287 286 284 288 290 291 288 284 286 284 286 286 285 285 285 282 284 285 288 289 288 286 284 286 285 286 288 290 291 293 293 293 295 296 295 295 295 296 296 297 297 297 297
321 321 321 321 321 320 320 319 318 316 301 300 297 295 296 299 294 293 298 290 290 294 294 294 292 293 296 297 297 298 295 294 294 295 299 300 295 294 290 290 288 285 286 287 289 286 285 284 289 291 288 287 287 283 284 284 284 283 283 282 283 285 284 284 285 282 283 285 287 288 286 287 290 292 293 294 294 294 295 295 295 296 295 296 297 296 296 296
321 321 321 321 321 320 320 319 318 307 301 298 298 299 299 296 296 299 296 290 290 293 294 294 294 292 292 295 297 298 295 292 293 293 298 298 294 292 292 289 286 285 288 288 289 288 289 287 286 289 287 288 287 286 286 284 287 285 285 284 284 285 286 285 285 283 284 286 283 284 286 289 288 288 287 289 290 292 294 293 293 294 295 296 296 296 296 295
321 320 320 321 320 320 319 319 304 302 300 300 299 300 297 296 297 298 296 291 287 289 294 293 292 293 294 298 297 296 292 292 291 293 298 298 291 291 289 288 287 287 287 287 287 286 287 287 285 285 285 284 285 284 285 286 284 286 283 286 287 288 286 285 285 284 282 283 281 282 284 286 284 286 285 288 285 288 288 291 293 295 294 295 294 295 294 294
320 320 320 320 320 319 320 309 304 301 303 301 303 299 295 295 295 296 293 284 284 288 292 291 297 294 298 294 293 292 294 291 293 293 297 297 297 293 290 290 289 287 285 286 286 286 286 286 287 289 285 284 284 284 284 286 285 283 284 285 287 287 285 284 283 284 279 277 283 281 280 281 284 287 288 288 287 288 290 289 293 293 293 291 293 293 293 294
320 320 320 320 320 319 313 305 304 303 304 303 300 297 296 297 296 299 291 285 285 290 289 293 294 292 296 292 293 292 286 286 294 294 294 297 296 297 290 285 287 285 286 285 284 284 285 284 285 284 283 283 283 282 285 286 284 282 283 283 285 284 284 284 283 284 282 281 283 283 283 280 282 285 287 288 289 291 292 293 292 292 291 292 292 292 293 293
317 319 319 320 320 318 314 309 309 307 307 305 300 297 297 296 297 298 292 280 279 291 289 290 293 298 297 292 290 290 289 288 287 291 294 295 295 293 291 284 288 286 286 287 283 286 285 285 284 284 283 282 284 288 284 288 286 282 283 283 284 284 283 282 283 281 279 279 279 280 283 280 279 285 283 286 287 288 290 291 291 291 292 292 291 292 293 292
314 315 317 319 320 318 316 313 310 310 308 301 300 299 298 297 295 293 284 278 290 285 299 291 300 295 290 293 290 285 289 288 287 289 291 293 295 292 289 286 285 283 283 288 287 285 284 287 284 286 284 284 285 282 285 288 285 284 283 282 281 281 281 282 280 281 278 277 278 280 282 279 283 289 284 282 285 285 287 289 289 289 291 291 291 291 292 291
312 313 315 319 317 315 313 313 311 310 304 303 301 301 301 299 297 290 285 279 293 287 291 293 293 289 288 288 287 287 289 287 287 287 290 291 293 292 290 287 285 286 287 285 284 285 286 289 286 285 286 287 284 283 283 288 285 283 284 285 282 280 278 277 277 276 276 275 280 282 282 284 280 286 284 286 287 285 286 285 287 288 288 289 290 290 293 291
311 312 313 318 314 314 313 309 312 307 306 304 304 304 304 301 292 287 281 288 292 292 291 290 288 288 288 287 286 287 288 285 289 289 289 291 291 288 288 289 286 282 280 281 284 286 286 285 287 286 287 284 285 284 283 283 282 286 282 281 282 283 277 274 269 275 275 274 279 282 282 283 279 282 283 282 281 282 288 288 288 290 291 291 290 290 290 290
310 311 312 314 315 316 311 310 311 307 306 306 309 306 302 289 290 284 284 299 289 292 288 287 286 285 285 286 286 285 288 289 288 290 288 286 287 287 287 284 283 281 279 278 282 281 282 284 285 287 288 289 286 287 284 286 286 286 284 286 281 277 274 272 273 271 272 278 279 280 281 279 281 287 285 289 289 290 287 289 291 292 293 293 290 289 289 287
309 310 311 312 315 314 315 311 309 308 308 309 306 303 293 284 278 286 285 290 289 293 291 290 288 288 286 288 288 287 289 290 290 289 289 287 287 288 287 289 287 289 286 282 281 285 286 281 284 287 289 289 289 285 283 283 284 284 284 282 279 275 274 273 271 266 269 274 276 278 280 279 284 285 288 292 295 291 289 288 289 289 289 289 289 288 288 287
308 309 307 310 314 316 313 311 311 311 311 308 304 297 290 284 281 293 286 289 292 290 290 289 288 286 286 290 286 286 290 290 289 290 290 287 287 285 288 288 287 289 287 283 284 281 282 286 285 287 288 289 290 291 289 286 284 285 286 286 283 281 276 273 275 278 278 277 277 277 276 276 276 283 284 288 288 286 284 285 286 286 286 287 285 285 285 286
307 307 308 310 311 315 312 312 311 313 309 305 298 294 286 285 287 284 284 285 287 290 294 292 292 289 289 286 284 285 292 291 290 288 287 287 286 284 286 287 288 288 286 285 286 280 285 286 286 287 287 287 287 288 287 286 285 285 284 284 281 282 285 282 282 279 282 281 275 274 278 277 284 286 288 287 288 288 286 284 283 285 285 285 287 288 287 287
306 303 310 308 309 313 313 312 312 312 309 302 294 288 287 289 282 285 287 291 290 291 291 293 292 289 287 285 284 286 289 291 290 288 285 287 287 286 284 284 286 290 288 287 286 282 283 280 285 285 283 285 287 285 288 288 282 284 285 282 284 286 286 282 282 283 280 278 279 280 280 285 289 293 293 286 285 286 283 284 284 286 285 286 288 287 287 288
299 303 300 305 308 313 313 312 312 310 307 301 293 288 293 291 294 286 295 293 293 291 291 288 287 289 286 284 285 283 288 290 287 287 284 286 285 287 284 284 287 290 293 293 286 289 286 288 287 284 286 285 284 285 286 284 287 285 281 285 287 287 287 283 278 278 278 277 279 285 282 284 284 282 286 286 286 286 284 285 283 282 283 288 288 288 288 287
299 300 303 303 308 314 313 312 312 309 305 298 291 294 293 292 292 295 290 292 293 294 290 288 289 291 284 286 285 283 286 287 285 286 283 286 287 288 283 285 287 289 292 291 289 287 289 282 288 287 288 286 283 286 286 286 287 286 285 287 285 280 279 281 277 274 276 275 277 281 284 284 285 286 290 289 291 288 287 284 287 290 287 288 288 288 286 285
298 300 296 302 306 314 313 313 311 306 299 293 292 291 297 297 292 290 292 295 294 293 290 289 290 290 288 284 285 284 285 284 285 284 284 286 284 289 289 288 289 287 288 290 287 286 287 284 285 286 287 286 285 285 279 283 286 285 286 285 285 283 283 281 281 279 280 276 279 278 283 281 288 288 290 290 286 286 286 288 288 286 287 285 284 284 284 283
297 297 294 307 311 314 313 312 306 302 297 289 293 293 293 290 294 293 291 297 293 293 290 291 289 290 291 290 289 289 286 287 286 285 286 287 288 293 289 292 287 288 289 290 288 289 284 286 281 287 284 287 283 285 282 285 283 283 283 281 284 283 285 284 282 280 281 279 279 278 277 283 289 290 290 289 286 287 286 286 286 284 283 282 282 282 283 282
298 294 294 310 312 314 312 307 299 295 294 296 297 295 295 294 292 292 293 294 296 297 294 290 289 290 290 288 290 290 288 287 286 286 287 286 289 286 290 292 290 290 289 289 288 285 284 284 282 286 283 284 286 287 287 288 289 286 286 284 286 283 281 279 278 285 281 281 277 279 277 285 290 295 294 292 287 286 286 286 284 282 282 281 281 281 281 282
296 286 293 310 313 313 306 296 296 297 293 293 293 296 294 301 294 294 293 294 294 294 295 293 292 291 289 291 292 288 288 286 287 286 286 289 291 292 293 292 290 292 290 285 286 288 288 283 284 282 285 286 288 289 287 289 289 288 288 285 288 286 285 282 277 281 283 282 284 282 279 281 293 294 295 294 287 282 283 284 282 282 281 281 281 281 281 282
294 290 302 307 312 310 302 294 297 294 291 294 298 297 296 294 291 291 292 292 291 293 291 291 292 291 291 292 290 289 290 286 287 288 287 286 290 294 292 291 292 290 292 286 289 288 292 284 280 284 287 288 291 293 289 286 287 286 286 286 285 283 285 284 284 284 282 283 282 281 278 282 292 295 293 286 283 283 282 282 281 281 281 281 281 281 281 281
291 291 296 305 310 308 299 289 289 292 294 297 297 296 298 294 291 290 291 291 291 289 289 289 289 293 290 290 289 289 289 285 289 290 287 288 286 289 288 289 292 287 290 286 288 289 284 284 284 281 281 281 283 285 284 285 285 284 285 288 287 287 286 285 284 281 280 281 282 280 275 281 289 290 289 285 282 281 280 280 280 279 280 280 281 281 281 281
288 288 292 295 303 302 293 296 293 292 293 293 294 293 295 295 296 297 295 292 293 291 290 288 293 289 289 288 286 285 287 289 285 288 286 286 286 285 285 286 288 286 288 288 290 290 284 283 283 277 276 274 274 275 276 277 280 282 282 283 286 286 285 284 280 282 278 282 284 280 280 286 290 289 288 286 282 281 281 280 280 280 279 280 280 281 281 281
281 276 282 288 294 297 295 296 294 292 288 289 290 292 294 291 294 293 295 295 297 292 294 292 288 288 285 287 286 287 287 285 286 284 284 283 283 283 283 283 282 283 288 291 288 289 286 284 284 283 282 280 281 283 283 285 283 281 281 284 284 284 284 285 285 281 279 283 282 283 284 284 286 289 289 284 284 280 279 279 279 279 279 280 280 280 281 281
282 279 281 272 286 289 290 293 291 293 289 292 287 291 290 291 291 292 294 289 290 291 290 292 288 288 285 285 285 287 287 287 286 284 284 284 283 283 283 283 283 286 290 287 289 284 284 283 285 285 284 284 286 285 287 286 283 285 284 284 286 285 286 284 281 279 286 282 276 285 286 283 284 288 285 281 281 280 279 279 279 279 279 279 279 280 282 280
277 277 281 285 284 276 281 286 288 287 289 290 286 290 287 286 286 284 287 289 289 287 289 288 291 291 290 288 287 284 286 286 285 283 285 283 283 281 283 283 280 284 284 281 282 283 281 281 284 284 282 285 286 285 283 282 281 283 284 284 283 284 283 281 282 284 284 279 277 284 284 282 284 286 282 280 280 279 278 278 279 279 279 279 279 280 280 280
280 280 279 284 280 282 283 285 285 286 285 287 286 289 286 287 286 288 286 286 288 285 289 284 287 288 287 287 286 283 285 282 281 284 283 281 278 277 277 279 282 280 281 279 281 282 281 278 283 281 281 282 281 281 281 280 281 281 281 282 283 283 283 283 283 284 283 281 283 283 283 282 285 283 279 279 281 280 279 279 279 278 278 279 279 279 280 280
279 281 278 282 282 281 282 282 282 282 281 284 283 285 287 287 286 287 286 287 285 287 289 287 284 282 283 282 285 285 285 285 283 282 281 279 279 278 275 280 278 279 279 278 280 279 283 277 284 279 279 278 281 281 280 279 279 278 280 281 281 281 280 281 281 281 282 281 282 282 281 281 282 280 280 281 280 281 280 279 278 279 279 280 280 279 280 280
284 285 285 279 277 278 279 280 280 281 279 281 281 282 284 284 284 284 282 287 286 286 283 281 282 282 283 283 283 283 284 283 283 282 282 282 280 284 280 280 283 277 280 277 281 279 282 278 283 279 275 274 279 279 279 279 278 276 276 278 278 278 276 279 278 281 280 278 280 280 278 279 277 279 278 280 279 280 279 279 279 279 280 279 278 279 279 280
282 281 286 282 275 280 279 282 278 279 274 277 281 281 282 279 279 282 282 285 283 285 282 282 282 281 281 281 281 283 283 283 283 283 285 284 285 283 283 283 283 281 280 280 283 279 280 278 275 275 273 272 278 278 276 275 274 271 273 276 278 278 279 280 281 281 281 282 278 275 276 273 274 278 275 278 279 278 280 279 280 280 280 279 279 279 280 280
Wind_Speed
12 12 12 12 12 12 11 12 12 12 12 12 11 12 11 10 10 10 10 10 11 11 11 12 12 12 12 12 10 8 8 1 1 0 0 9 5 5 4 6 12 13 11 6 5 6 1 2 3 4 2 3 2 1 2 2 1 1 2 3 1 5 3 7 7 10 2 1 3 2 2 1 5 2 1 1 1 2 6 4 6 6 10 8 4 1 1 3
12 12 12 12 12 12 12 11 11 12 12 12 12 11 12 11 11 11 11 11 10 11 11 11 12 12 12 11 10 6 3 0 1 1 12 2 3 5 4 8 10 11 10 6 7 4 6 1 0 2 3 1 2 0 1 1 0 3 2 2 6 5 8 9 7 8 1 8 4 2 2 1 8 1 2 2 3 3 9 6 3 8 12 10 9 7 3 6
11 12 12 12 12 12 12 12 12 12 12 12 12 12 12 12 12 12 12 12 11 11 11 12 12 12 11 10 9 3 1 2 0 3 3 2 3 5 6 10 12 9 4 4 4 7 3 6 6 4 2 2 6 2 2 0 1 3 4 5 7 9 6 7 5 7 11 2 5 6 3 1 4 1 0 2 6 4 10 12 3 7 14 11 10 5 7 6
11 12 12 12 12 12 12 12 13 13 13 13 13 13 13 13 13 13 13 12 12 11 11 11 11 11 11 10 8 0 1 0 1 2 1 4 3 8 7 10 9 7 8 7 7 6 5 9 6 3 1 1 3 0 1 3 2 1 2 5 6 5 1 6 11 11 8 2 3 3 2 5 5 7 2 2 4 10 14 13 13 15 14 13 9 7 6 8
11 12 13 13 13 13 13 12 12 13 13 13 13 13 13 14 14 14 13 13 12 12 12 11 11 11 11 9 6 2 2 4 2 1 2 3 4 8 9 10 8 3 4 9 10 6 6 5 3 3 2 2 1 1 3 1 1 4 10 5 6 3 3 6 8 6 4 3 3 2 4 9 2 1 4 4 7 13 10 8 11 15 13 9 9 7 6 8
11 12 12 12 12 14 13 13 13 13 14 13 13 13 14 14 14 14 14 14 13 13 13 12 12 12 11 9 0 1 4 2 1 1 3 5 6 8 10 10 9 10 11 5 4 4 7 2 4 1 0 1 4 5 2 2 2 5 2 6 7 7 5 1 2 4 4 1 2 3 5 6 2 7 5 9 14 17 18 10 10 11 9 9 3 3 7 9
10 11 12 11 12 13 13 13 14 14 14 13 13 14 14 14 14 14 14 14 14 13 13 13 12 12 12 2 0 2 3 6 2 6 6 7 7 9 10 9 10 8 7 5 4 3 1 3 2 2 3 1 3 4 4 3 0 1 8 1 6 4 11 5 2 5 3 4 7 4 5 9 4 10 1 9 16 20 21 14 10 7 4 3 5 8 11 12
9 10 11 11 12 12 12 12 13 14 13 13 13 14 14 14 15 14 14 14 14 13 13 12 12 11 10 1 1 2 1 5 10 1 7 9 9 10 10 5 6 5 5 8 8 5 5 6 6 3 1 5 3 6 1 1 1 4 7 4 5 2 7 6 4 4 5 9 9 3 6 18 11 6 4 16 18 18 19 16 8 8 7 7 9 14 12 11
6 9 10 10 11 12 12 12 13 14 13 13 13 14 14 14 14 14 14 14 13 12 12 12 11 11 4 1 3 2 5 7 4 6 7 9 8 9 9 4 2 7 4 3 3 8 6 6 2 7 7 2 2 2 2 2 8 8 13 1 3 4 6 5 5 6 8 7 4 2 14 18 10 5 9 24 25 16 12 13 11 6 9 11 13 15 12 12
6 9 10 10 11 12 13 12 13 14 14 14 14 14 14 15 14 14 15 13 12 11 11 10 10 9 3 2 1 4 6 3 3 4 6 9 8 8 5 4 7 7 6 3 5 6 6 7 10 5 3 1 5 3 2 6 6 3 2 3 6 7 6 4 6 5 4 6 6 8 12 14 2 3 11 13 12 1 5 9 5 3 10 12 9 10 10 11
7 9 10 10 10 12 12 13 14 14 14 14 14 14 15 15 15 15 14 14 12 11 10 9 8 5 1 2 2 11 3 5 1 4 7 8 9 8 5 6 6 6 5 2 6 8 4 7 3 5 1 5 4 2 3 4 1 2 1 4 8 6 7 9 5 12 1 9 8 11 12 10 4 3 15 23 2 3 2 11 8 6 11 12 11 10 8 9
7 9 9 11 11 12 12 13 14 15 15 15 15 15 16 16 16 16 15 14 13 11 9 7 2 1 0 2 7 9 2 4 5 4 5 6 4 1 1 4 5 7 8 6 6 5 5 6 8 4 2 2 1 1 3 4 1 0 2 5 8 7 11 4 6 7 8 8 6 9 1 6 2 9 20 18 4 4 5 10 13 10 12 12 11 9 9 12
5 7 10 11 11 12 12 13 14 16 16 16 17 17 17 17 17 16 16 14 10 8 6 3 4 1 1 6 10 3 2 4 7 7 5 5 6 4 3 1 2 3 5 6 5 5 5 8 4 4 2 2 2 2 1 2 0 1 2 1 9 7 10 7 3 3 5 4 8 6 8 6 12 18 18 14 0 0 3 9 12 12 11 9 9 10 10 9
5 6 10 10 11 12 13 14 16 17 18 18 18 18 18 18 17 17 14 13 11 8 5 3 2 2 1 7 5 1 3 5 7 6 2 1 4 2 4 4 4 2 0 2 0 1 6 2 5 2 1 3 3 1 1 4 3 3 3 2 5 4 9 4 0 1 1 3 9 2 9 6 12 14 14 8 1 2 7 10 11 12 11 10 8 9 10 12
4 6 6 10 11 12 13 14 17 19 19 19 19 19 20 19 17 13 10 7 6 8 6 6 1 2 1 8 2 1 7 1 3 3 4 5 4 2 1 2 4 4 3 3 3 2 5 6 5 1 2 0 0 2 6 3 4 1 4 5 2 6 6 10 3 5 9 1 1 4 10 13 12 16 14 3 2 0 6 10 11 13 12 12 10 10 12 14
4 5 4 9 11 12 12 12 16 18 19 20 20 20 18 14 9 7 4 3 4 8 5 1 1 2 1 7 1 6 2 1 2 1 1 1 5 2 3 4 1 3 2 3 2 4 3 4 2 3 1 2 2 3 2 5 4 3 6 6 9 3 6 8 6 3 8 0 2 10 12 2 9 14 13 2 2 2 7 13 13 17 17 15 13 13 13 14
6 5 3 5 10 11 11 13 14 18 20 20 21 19 13 6 3 7 8 6 3 3 1 1 1 1 1 3 3 1 3 0 2 1 2 2 2 7 6 4 1 3 5 4 2 3 4 2 2 1 3 2 2 4 2 2 7 7 1 7 3 7 3 5 8 9 1 7 4 8 8 12 14 8 12 14 7 8 15 19 17 15 15 17 15 15 15 14
6 5 4 5 9 9 10 12 15 18 20 21 20 14 7 4 1 4 8 6 2 2 0 1 1 1 9 2 5 2 0 1 2 3 3 2 4 6 5 3 1 5 4 2 3 3 2 1 4 5 1 0 2 3 4 10 9 6 4 6 8 2 5 11 1 5 9 3 6 1 12 16 16 14 15 15 15 6 14 19 18 16 16 16 16 15 15 13
6 6 6 5 7 8 8 13 16 18 19 24 14 8 2 4 3 2 4 1 1 1 1 1 2 3 3 1 5 3 1 1 3 2 1 4 1 3 4 4 5 8 1 2 2 3 2 4 4 3 6 5 8 11 13 15 9 10 5 6 4 9 5 4 10 8 3 16 15 10 17 19 14 13 13 13 12 11 14 18 17 16 16 16 15 14 13 15
6 7 6 6 6 6 8 13 15 17 18 15 7 4 2 5 4 1 4 1 2 4 2 4 5 3 7 9 3 0 1 1 1 4 1 2 5 4 4 2 2 5 6 5 1 4 2 7 8 9 12 13 9 12 17 12 3 1 1 1 9 9 10 6 12 9 3 7 12 17 21 19 15 12 12 14 13 14 15 18 19 17 16 15 13 15 17 16
6 6 6 5 4 5 9 12 15 16 18 6 4 3 3 1 2 4 5 9 7 4 5 7 13 9 10 1 0 0 0 1 3 0 0 1 0 7 2 2 2 2 2 2 6 1 2 6 7 12 14 11 11 6 4 6 4 4 6 5 11 2 15 10 9 4 0 2 3 4 17 20 18 15 15 15 14 21 21 20 15 17 19 16 16 18 17 12
7 7 5 6 4 5 8 10 13 15 11 1 5 4 1 1 0 1 2 6 5 7 7 13 2 5 6 6 1 2 4 2 0 1 0 1 0 3 2 4 3 8 0 2 1 1 4 8 11 15 7 1 2 1 1 4 6 6 8 6 7 9 10 11 11 6 3 2 11 6 16 17 15 17 19 18 21 19 16 5 14 15 18 16 16 15 11 10
7 7 6 6 4 4 6 10 12 10 4 4 3 2 1 0 0 1 2 0 6 3 4 7 4 8 9 1 1 4 4 8 8 1 5 2 2 3 4 4 3 1 1 3 9 3 6 3 16 14 3 4 3 2 1 1 1 6 5 3 12 2 3 9 2 1 1 1 12 14 21 19 13 20 20 18 14 14 11 13 12 15 16 21 17 7 10 12
7 7 7 7 4 4 5 8 9 3 4 1 2 0 0 2 3 2 1 2 4 7 6 3 2 2 4 1 2 6 5 3 1 4 3 4 6 3 3 5 3 3 8 8 11 11 13 3 2 3 5 7 8 4 1 4 12 5 9 6 9 10 10 8 7 5 7 5 2 9 14 13 6 2 4 5 4 8 16 11 11 16 16 11 9 14 8 7
7 7 7 6 5 4 4 6 3 1 1 0 0 1 1 2 2 3 1 4 1 6 1 0 2 1 2 1 1 4 1 1 4 1 1 2 5 2 2 1 3 7 6 8 7 8 9 4 3 4 3 5 5 4 7 8 12 6 4 11 15 13 11 9 9 8 6 6 5 4 12 7 1 2 3 5 4 3 5 9 20 11 7 2 6 5 7 6
6 6 6 5 5 4 3 2 0 2 1 0 0 1 2 2 2 1 1 2 5 4 3 2 0 0 0 1 2 2 4 1 0 2 0 2 2 1 1 0 2 4 4 2 6 4 5 2 4 7 4 3 4 5 6 8 11 4 8 12 13 11 8 8 10 4 5 2 1 4 4 17 4 5 4 6 1 7 13 13 12 7 6 5 4 8 4 1
4 5 5 4 6 4 0 1 1 2 2 1 2 2 2 2 2 1 2 3 3 2 1 1 0 0 1 0 0 1 2 1 1 2 1 3 1 0 1 4 1 1 1 2 4 5 1 2 3 4 5 4 4 5 7 12 5 8 3 7 7 6 7 6 3 6 7 1 4 2 5 5 21 2 5 0 3 13 14 12 7 6 7 8 7 7 4 3
9 5 3 4 8 6 1 1 0 1 2 0 3 3 2 2 2 0 1 5 2 1 1 1 0 1 1 1 5 0 0 1 1 0 1 2 1 1 1 3 5 5 2 3 9 2 4 0 2 2 2 4 7 9 3 12 8 6 1 6 5 6 5 3 4 5 2 5 8 1 1 3 9 3 3 4 4 10 11 12 10 8 8 6 8 6 3 5
10 10 6 4 9 5 3 1 1 2 0 4 3 3 2 2 1 2 2 1 1 2 1 1 3 0 2 1 2 1 0 1 1 1 2 1 1 1 1 4 4 3 2 7 10 1 2 0 6 8 6 7 7 3 10 12 6 4 5 7 6 6 6 2 3 2 3 2 9 5 4 3 17 8 4 3 1 7 7 7 10 8 4 4 5 5 4 4
11 10 9 5 8 3 1 2 4 2 5 4 4 4 2 1 0 1 1 5 3 2 1 1 1 2 1 1 1 2 1 1 1 1 3 2 2 2 1 2 2 1 3 1 4 8 3 1 6 4 6 5 3 0 3 9 3 4 4 3 4 6 4 4 5 2 2 5 8 12 10 6 11 3 7 7 4 4 3 5 3 8 4 10 8 2 1 4
11 9 10 5 3 4 3 2 4 5 5 5 5 3 1 1 2 2 9 2 3 2 1 1 1 3 1 1 0 1 0 0 0 1 0 1 1 2 1 1 3 2 1 2 6 4 1 1 1 4 3 3 3 2 3 1 2 3 2 2 2 2 5 2 4 2 2 8 3 12 13 11 11 2 5 5 4 5 2 2 7 8 13 4 4 1 3 5
11 10 8 2 1 1 3 2 1 5 5 5 2 3 1 2 1 9 4 1 2 2 1 2 1 1 1 1 1 1 2 0 1 2 4 3 3 3 4 5 4 1 4 1 5 2 2 7 3 3 3 9 1 1 2 2 1 2 3 1 2 5 6 2 2 1 5 9 2 3 1 2 19 7 4 12 9 11 6 6 8 10 10 6 4 6 5 4
11 10 7 3 1 1 2 2 5 5 4 1 3 2 1 2 6 2 1 1 3 1 2 2 1 0 2 1 2 1 1 1 1 2 4 0 2 5 5 6 6 5 9 1 2 4 8 1 2 4 2 4 7 6 2 1 4 6 6 4 5 3 4 6 4 2 6 5 4 1 0 8 7 6 9 16 19 6 1 5 5 3 7 5 4 5 7 8
12 9 3 1 2 3 2 5 5 6 3 5 4 2 2 7 5 1 3 4 3 2 2 1 1 1 1 4 3 3 4 2 5 3 3 2 1 3 4 5 4 2 2 1 4 2 7 11 5 4 2 2 9 10 5 4 7 10 1 8 7 7 5 5 5 7 6 3 3 3 2 8 1 4 2 6 4 5 3 2 4 6 4 1 4 4 5 6
12 7 2 1 1 3 5 4 7 5 5 5 2 5 8 10 1 4 3 3 4 2 4 1 1 1 5 0 2 2 6 4 1 2 2 4 5 4 5 4 3 4 1 1 3 2 10 10 5 5 1 6 9 3 6 4 2 3 3 3 2 9 5 8 3 3 5 3 2 2 7 4 8 2 11 6 10 8 6 3 4 3 5 3 6 7 8 8
6 3 2 1 3 3 7 5 6 5 7 4 3 6 14 6 3 2 4 3 0 1 1 3 1 2 5 4 1 1 3 4 2 2 2 4 2 3 2 2 6 13 8 7 3 3 0 6 2 2 3 6 8 4 2 4 6 2 5 6 9 1 4 3 3 1 3 1 12 2 7 11 8 15 11 4 2 4 6 3 4 3 8 7 8 7 8 10
2 2 1 3 3 4 7 7 7 6 3 5 4 12 8 3 7 3 3 3 2 3 1 3 3 5 1 3 2 0 2 1 4 3 5 1 5 7 3 5 5 7 11 8 5 4 7 10 1 5 3 4 0 1 1 0 3 7 2 7 2 2 1 2 5 1 3 9 8 4 10 11 4 12 3 4 8 3 4 4 3 3 6 9 8 9 12 12
3 1 2 2 4 7 9 9 9 6 6 6 12 17 3 5 2 7 1 2 1 1 0 3 6 4 4 5 5 3 1 5 2 3 4 4 5 4 4 2 5 9 11 1 3 4 2 8 7 6 7 2 1 2 4 0 2 7 7 1 2 4 3 1 4 4 6 9 5 5 12 12 10 15 10 8 10 2 3 6 9 13 13 12 12 13 12 12
1 1 3 3 1 9 9 10 9 8 5 8 12 13 5 10 2 3 5 4 1 0 3 4 5 2 3 3 2 1 2 3 2 4 3 3 4 4 6 4 0 2 1 4 1 2 0 8 4 2 3 2 1 4 7 5 1 1 1 2 1 1 5 3 6 2 1 8 3 5 9 8 7 7 11 15 2 0 2 10 10 10 12 12 12 12 12 12
2 2 3 1 1 8 10 10 7 8 7 14 13 10 2 1 4 1 2 4 3 4 4 5 3 8 3 6 2 7 2 4 3 5 4 2 6 2 1 2 3 0 1 1 3 1 4 3 13 1 4 1 3 5 8 10 7 2 1 4 1 2 1 2 2 3 7 9 10 10 11 7 7 5 7 5 2 7 9 5 7 11 10 10 9 8 8 8
1 2 2 1 4 9 10 7 7 11 10 6 7 6 1 5 1 1 2 3 3 1 4 2 3 5 2 2 5 1 2 4 3 5 3 5 4 7 2 4 2 2 1 3 0 1 1 2 10 6 1 7 10 4 8 7 8 6 8 8 9 7 5 8 12 5 5 8 9 10 17 6 5 5 7 2 5 11 5 7 9 8 8 7 7 7 6 7
1 2 1 3 7 11 9 10 6 2 2 8 9 4 5 2 3 4 2 0 4 3 1 1 3 4 2 8 8 3 2 3 5 4 3 10 3 8 3 4 4 5 5 5 6 5 6 2 2 8 10 13 7 5 2 3 2 3 6 7 8 6 5 6 12 6 4 5 5 10 12 9 3 7 10 9 11 9 9 10 8 7 7 7 7 6 6 7
1 3 1 1 2 10 8 7 5 4 4 3 3 3 1 3 3 2 1 0 1 2 1 1 3 4 4 6 4 5 4 6 5 8 3 2 6 7 5 7 4 5 3 5 2 3 6 2 1 10 5 6 12 9 1 2 2 3 3 1 1 6 8 10 10 5 9 7 8 8 11 1 5 9 3 14 9 9 8 10 8 7 7 8 8 8 9 9
2 1 4 2 2 4 8 10 10 10 6 5 4 5 1 2 1 3 1 1 3 1 2 1 3 4 4 2 1 5 1 7 6 13 7 3 4 1 7 9 6 1 1 4 1 5 2 3 5 7 4 2 3 5 1 3 2 3 4 6 6 6 6 6 4 1 6 7 12 12 16 5 0 2 10 10 9 9 9 8 7 7 7 8 9 9 9 8
1 2 2 5 2 1 7 1 4 5 6 7 6 9 9 4 5 9 5 4 1 3 1 2 5 1 2 1 2 2 3 9 5 4 3 2 3 2 7 8 7 3 2 2 3 1 1 3 1 5 7 7 6 7 7 2 4 1 2 2 3 4 9 5 8 7 13 5 13 12 12 8 6 2 6 9 8 7 6 6 5 5 5 7 8 8 9 10
0 1 2 3 3 1 2 2 1 3 3 5 7 8 8 10 5 1 6 7 9 4 7 5 2 2 2 2 3 4 5 4 6 3 2 2 2 2 1 3 4 0 1 4 2 3 2 1 3 5 8 11 10 5 1 2 0 2 4 3 6 2 1 4 7 9 12 11 13 11 13 13 11 12 9 9 4 5 2 4 5 6 5 4 3 4 4 5
1 3 2 1 2 2 3 3 2 3 3 1 4 1 10 10 5 4 7 2 2 2 1 5 2 2 3 3 4 7 7 9 5 5 6 7 2 2 4 4 3 6 3 1 1 2 2 5 8 13 13 12 10 10 10 4 8 6 7 8 7 8 9 10 10 14 7 10 16 6 11 10 5 7 6 5 4 3 4 3 3 3 3 4 5 4 4 3
2 3 4 1 2 3 2 8 1 3 4 0 3 3 2 2 2 4 2 1 1 0 2 3 2 7 9 8 5 6 0 4 1 3 0 1 0 4 2 2 4 5 3 1 1 2 1 7 7 8 10 9 10 8 3 4 3 4 7 7 9 9 10 14 17 15 10 12 15 9 12 17 15 12 4 2 1 0 3 3 2 1 1 1 2 5 7 7
3 1 0 2 2 2 1 2 4 2 4 0 2 2 7 6 7 3 1 3 2 3 1 5 2 3 2 5 3 3 0 6 5 3 2 1 1 1 2 3 1 5 6 4 3 0 0 4 7 4 7 5 7 8 6 7 7 8 7 8 8 11 15 15 15 12 13 17 17 18 18 21 19 7 6 3 1 4 4 4 1 2 2 1 1 1 1 4
2 0 0 3 2 1 1 1 2 3 3 2 3 7 5 4 11 5 2 1 4 5 2 9 5 7 4 5 1 6 4 6 6 12 1 2 3 2 2 4 3 4 4 1 3 5 1 6 4 1 5 7 4 7 7 7 6 10 9 11 13 16 18 16 18 20 19 18 18 20 19 19 2 4 5 4 1 1 2 4 5 4 3 2 2 2 2 3
1 2 1 2 2 2 2 0 1 1 1 3 6 4 3 4 7 2 2 0 1 3 4 2 4 5 2 1 3 2 3 1 4 4 3 3 2 3 3 3 5 4 5 2 1 3 4 4 6 5 8 9 7 10 10 9 10 10 11 13 19 21 18 14 17 15 13 16 16 14 12 11 2 2 1 2 1 3 4 4 6 6 5 3 3 3 3 5
2 1 2 1 0 2 3 1 1 2 4 2 2 2 0 2 2 2 1 2 5 7 6 4 2 2 3 3 2 2 2 0 1 2 4 5 5 6 4 6 6 3 2 1 2 4 2 3 4 6 10 9 10 8 5 4 9 14 14 19 22 20 18 19 17 15 15 8 10 11 13 1 4 2 4 2 5 3 4 6 4 5 7 7 5 6 5 5
Wind_Direction
29 26 25 23 23 22 19 15 12 9 8 8 5 5 4 1 358 356 353 351 349 350 345 341 344 341 342 344 344 348 347 85 40 358 226 241 216 211 165 121 137 144 144 102 99 109 51 30 118 345 45 58 313 85 278 47 69 55 123 119 235 212 160 205 187 192 216 203 274 303 191 25 302 322 270 41 322 262 280 257 281 286 252 234 247 110 105 132
24 20 18 17 16 16 14 12 9 5 3 2 3 0 357 356 354 351 350 350 349 346 345 342 339 341 341 340 343 345 15 62 224 267 231 249 312 166 152 139 137 147 124 109 140 134 128 252 251 55 98 110 324 126 5 212 97 109 125 117 233 191 238 166 201 209 142 250 228 255 212 196 260 136 289 332 285 313 299 264 248 260 270 270 264 224 142 148
18 14 12 13 13 10 8 6 4 359 358 356 356 355 354 351 352 350 349 351 348 344 343 340 337 335 338 339 331 13 15 356 64 260 261 24 217 156 147 148 151 155 140 154 189 140 144 194 174 103 11 121 2 177 30 235 122 218 130 229 241 215 231 223 199 223 206 265 284 302 302 164 250 140 327 228 278 316 264 276 273 238 261 255 253 224 198 173
13 9 6 5 7 3 2 1 358 355 353 353 349 350 348 348 347 349 348 347 345 343 340 339 333 331 331 331 334 108 78 353 294 231 279 266 222 155 157 150 139 117 88 61 140 113 107 91 79 98 80 96 306 19 152 234 134 246 116 198 229 208 211 244 211 235 234 180 262 257 301 309 263 220 151 191 324 260 255 246 238 250 247 258 246 244 194 203
4 4 360 357 359 357 354 354 356 352 349 345 345 344 345 342 342 343 345 342 341 339 340 336 334 330 326 327 339 122 7 46 271 235 248 229 161 155 151 143 127 93 102 141 85 63 79 114 102 45 92 214 344 14 244 234 192 117 212 216 195 119 245 241 221 219 203 185 212 293 321 265 61 96 199 160 223 265 255 243 215 231 238 244 255 238 183 205
356 356 354 354 352 353 351 349 351 350 346 342 340 340 340 337 338 337 338 338 336 338 337 338 335 332 327 324 86 95 70 335 218 262 159 140 147 141 134 126 126 116 114 71 103 118 100 38 94 147 350 90 201 180 261 176 148 239 277 250 226 205 243 244 214 218 159 197 177 282 242 334 235 285 181 178 214 252 256 251 240 232 228 234 243 140 199 214
350 352 349 349 350 348 347 348 345 345 346 341 338 336 335 335 331 333 332 333 332 333 339 336 335 336 331 13 78 83 150 252 302 240 146 134 133 126 122 117 119 114 106 99 119 125 103 111 118 190 98 9 277 201 248 191 341 217 262 205 278 190 230 210 242 132 199 192 248 207 336 289 276 296 140 191 233 241 262 259 251 257 244 247 240 213 225 218
348 345 345 344 349 346 344 343 343 343 344 340 335 333 332 329 330 327 329 327 328 329 334 335 335 333 353 62 300 359 58 243 244 248 156 121 111 117 110 80 105 111 127 158 149 140 135 148 181 134 186 183 224 161 190 123 129 209 267 207 266 169 242 265 254 261 262 249 253 306 283 266 254 240 323 265 245 247 256 271 268 272 266 252 244 253 242 239
352 339 342 343 344 344 341 340 340 342 339 336 334 330 330 327 327 326 323 323 324 324 328 333 329 336 321 82 116 312 255 239 226 185 136 122 130 125 135 133 134 138 145 117 165 163 133 235 155 182 241 202 184 176 207 172 285 204 232 197 284 271 274 267 287 240 237 264 170 174 250 262 284 210 243 253 262 253 270 277 269 269 266 253 242 246 242 239
348 336 341 341 336 337 341 340 339 338 336 333 331 330 326 326 322 322 318 318 316 321 319 330 334 325 25 88 46 284 261 190 30 109 119 126 127 125 57 145 137 125 126 190 92 127 188 205 180 204 123 158 143 207 135 158 237 163 219 243 259 271 312 291 226 257 226 244 161 197 248 265 317 40 281 254 241 281 248 260 283 259 254 256 245 248 242 239
335 334 338 338 336 337 339 337 335 334 332 329 327 325 324 320 318 314 314 309 309 306 312 317 350 357 117 101 193 258 210 84 71 110 125 129 121 138 194 163 165 140 120 127 188 187 178 147 149 97 97 227 127 256 157 220 141 73 186 308 285 296 261 244 272 263 265 281 194 201 249 274 295 132 245 265 123 171 253 273 274 256 260 262 254 246 250 241
319 328 330 333 338 337 332 333 332 330 328 327 323 322 319 316 314 310 305 302 297 294 297 313 354 35 64 108 214 231 326 138 121 118 123 128 114 203 212 177 172 161 148 167 231 233 162 163 133 135 216 129 272 126 257 245 16 78 24 310 290 337 315 230 227 254 161 251 149 164 181 301 251 221 247 250 284 237 241 271 279 265 255 263 269 258 248 239
298 323 334 336 337 333 332 330 330 329 326 325 323 320 319 316 311 307 300 294 286 282 277 285 93 354 83 301 237 237 58 120 116 107 70 73 108 72 74 81 123 141 168 145 207 222 171 142 138 165 214 131 167 239 131 91 338 37 52 176 323 330 298 290 201 30 153 249 149 142 279 206 247 243 255 270 126 164 279 269 264 271 270 263 263 265 260 252
312 355 327 334 335 334 332 330 329 327 326 323 322 322 319 315 312 305 297 282 276 265 274 160 101 123 121 240 265 255 145 111 105 97 122 179 93 357 36 32 72 57 312 121 123 133 137 135 126 149 111 172 258 270 35 344 16 258 252 108 250 340 266 292 19 188 256 213 175 111 254 235 265 267 260 269 114 221 267 266 277 273 276 271 262 261 267 265
296 324 315 334 334 332 330 329 328 326 324 323 322 322 319 316 315 313 301 280 259 238 198 105 105 99 101 266 199 359 146 125 122 223 185 130 117 59 14 45 48 29 66 97 128 87 122 107 98 113 249 270 41 330 286 30 359 331 351 274 324 196 282 302 272 183 246 311 196 138 257 253 246 259 268 307 31 94 255 268 271 274 272 275 276 270 264 263
276 292 317 327 330 328 327 324 323 323 321 320 321 320 316 316 331 344 354 149 106 113 114 104 34 109 67 298 232 136 72 192 269 356 1 108 158 157 155 112 119 30 37 21 64 107 47 94 109 191 119 11 183 161 356 14 340 344 203 268 257 230 264 336 288 236 246 204 269 178 252 296 279 254 273 277 315 292 269 274 273 275 279 276 271 267 262 266
269 276 298 330 322 323 322 321 322 322 319 320 321 317 317 325 47 48 55 84 101 98 137 172 114 149 200 236 125 317 258 238 141 26 27 28 118 141 110 78 76 71 61 69 27 61 350 82 290 24 27 166 146 98 327 323 283 262 142 239 187 245 312 285 305 287 9 173 225 238 251 242 261 284 293 296 272 291 290 279 275 272 274 274 273 266 266 265
266 273 287 289 313 318 316 321 325 324 322 321 325 314 313 310 189 88 66 54 24 105 21 181 134 15 279 11 268 241 261 230 44 171 67 298 127 125 104 111 59 99 89 47 358 122 307 152 36 192 339 328 121 120 155 244 221 236 223 261 280 275 223 247 320 266 343 211 212 341 256 260 265 277 278 272 283 252 263 275 274 277 273 271 269 270 272 270
264 261 261 269 296 305 323 327 325 326 327 321 328 314 41 56 42 111 83 29 48 355 47 249 109 144 210 232 304 5 129 170 139 82 166 108 37 101 74 84 102 125 132 99 257 131 355 65 35 58 223 211 220 191 204 231 229 247 242 255 290 287 252 220 234 273 244 286 291 275 271 275 272 270 272 276 268 268 260 271 276 272 269 269 272 276 273 268
261 263 268 280 296 316 330 326 324 326 331 330 2 5 19 20 4 355 339 18 191 204 257 213 229 260 319 289 244 306 275 54 147 348 142 283 122 96 36 91 38 59 117 189 185 203 124 162 169 194 219 217 221 207 217 238 12 49 149 246 260 265 282 263 267 263 247 300 252 261 272 278 280 273 278 277 283 274 265 263 269 272 277 275 276 270 267 266
265 267 272 285 303 327 324 325 325 325 329 329 332 57 67 174 45 311 308 263 253 258 248 245 205 215 234 116 338 137 184 290 64 70 207 134 137 121 212 79 100 158 254 183 151 293 86 195 218 219 221 215 225 247 294 304 303 291 277 267 272 207 277 259 290 273 74 218 282 230 278 275 278 281 273 273 271 267 260 261 271 278 271 276 270 269 271 278
263 270 277 278 284 313 322 321 323 326 329 58 48 81 161 210 205 228 110 314 313 237 233 247 39 274 276 261 221 151 87 345 305 35 327 148 25 154 289 116 151 200 148 118 359 120 200 209 224 232 237 49 48 66 85 212 251 251 244 272 306 263 261 275 252 309 296 155 273 277 276 277 280 273 261 246 249 257 265 276 261 266 274 274 272 273 297 301
264 269 267 266 253 294 320 314 322 341 9 27 38 71 132 234 66 300 72 164 268 269 222 242 225 239 271 331 240 112 237 220 253 188 207 120 57 209 140 125 170 99 159 192 202 198 273 264 239 239 216 239 280 82 113 359 238 233 260 289 254 273 310 304 238 343 313 148 299 300 297 291 272 257 255 253 250 262 277 258 252 252 267 262 266 334 313 351
265 262 263 262 241 253 299 319 321 39 27 119 114 161 256 96 111 97 81 239 281 306 237 224 188 196 235 241 237 159 185 268 102 271 249 133 155 185 113 159 139 142 203 201 216 212 224 199 250 215 192 192 229 223 161 252 267 210 216 250 280 261 243 224 276 341 307 289 229 307 289 291 254 278 294 321 270 241 260 279 272 255 246 284 323 287 37 11
262 258 255 255 223 216 285 330 27 334 138 49 291 244 190 185 148 160 34 314 11 278 261 58 116 239 222 7 356 155 255 93 228 294 266 134 144 95 226 186 118 229 195 213 240 264 275 270 115 75 142 182 201 251 221 213 258 264 211 204 235 254 270 262 283 355 359 317 355 25 334 306 334 168 286 272 352 286 271 244 248 265 36 252 270 15 42 37
277 263 254 244 208 202 264 352 282 156 49 234 207 214 186 179 162 141 96 54 304 264 347 214 171 3 62 28 14 269 113 205 309 241 77 226 211 161 76 149 140 254 197 158 221 216 227 269 184 221 134 130 171 207 234 173 240 302 264 206 228 240 243 261 281 19 290 187 318 43 98 292 169 285 268 251 346 301 270 232 260 9 309 326 317 49 52 43
290 267 259 235 194 176 126 255 171 124 10 331 181 163 196 168 217 132 349 312 328 221 139 276 75 259 125 298 67 97 122 280 294 20 37 335 169 295 167 248 9 17 169 161 22 277 141 335 62 65 110 136 153 240 232 171 200 258 237 178 199 220 229 236 214 199 248 264 292 176 163 238 301 166 233 86 180 241 253 275 282 285 313 285 44 55 40 294
33 12 258 222 192 178 195 121 349 317 219 163 126 145 163 165 99 131 83 333 301 301 77 291 154 296 85 332 59 145 198 339 43 295 193 296 70 350 142 212 183 193 181 100 244 252 154 151 128 103 126 134 198 216 168 163 162 222 251 144 187 212 212 155 173 205 231 16 304 302 96 296 253 260 347 155 185 256 265 272 281 288 284 307 53 50 351 339
26 22 359 226 177 123 90 128 156 228 189 131 136 120 80 104 128 88 95 210 241 78 241 61 303 41 349 324 36 76 305 355 149 257 315 307 9 148 203 227 175 194 244 171 238 256 294 174 209 160 135 214 223 235 167 167 195 260 104 81 71 63 59 116 113 124 320 41 272 181 192 239 281 295 105 353 315 287 256 269 284 263 244 27 52 29 329 346
17 13 357 150 116 95 75 72 224 190 124 130 123 98 75 323 354 11 248 237 35 299 110 233 102 277 27 86 305 4 193 331 147 321 27 150 326 36 21 141 120 106 242 341 261 237 227 351 159 124 201 223 161 285 181 191 157 131 103 75 18 38 42 25 63 88 37 263 254 176 199 166 280 285 169 136 215 195 250 298 285 302 13 73 93 168 287 303
6 1 358 169 154 181 128 276 239 136 135 104 111 110 15 30 131 149 244 221 7 231 18 11 218 11 105 133 270 346 134 299 4 88 90 17 14 44 1 324 57 41 42 346 266 289 154 85 167 245 123 95 102 85 39 31 142 128 83 132 40 320 18 25 341 28 192 273 231 193 182 175 222 310 323 248 272 231 212 333 310 317 305 103 114 246 326 0
355 351 345 306 304 210 155 255 129 119 127 148 98 50 35 296 19 213 227 356 352 268 123 255 311 130 121 338 135 211 166 37 235 162 167 166 145 149 197 181 174 321 325 247 273 20 272 201 235 304 208 161 120 161 313 38 22 97 93 86 241 278 25 315 29 292 199 226 295 336 168 341 245 242 287 302 277 268 222 228 250 264 283 329 56 342 350 323
345 339 323 264 336 221 281 98 118 129 114 90 71 49 86 140 253 143 343 151 251 112 270 86 213 169 158 59 278 247 340 197 173 223 110 269 139 248 242 197 190 185 261 242 266 343 278 243 134 227 299 196 143 172 229 280 196 140 172 160 113 252 240 260 260 259 305 298 286 131 344 255 290 298 223 239 261 303 228 219 258 267 267 286 318 345 357 356
333 327 330 278 241 228 115 140 135 138 105 55 72 54 79 228 226 90 174 224 233 1 73 128 25 49 82 230 251 164 302 221 152 215 170 174 137 256 286 250 178 225 149 23 278 179 323 295 259 146 249 156 180 207 183 168 156 200 62 158 193 160 160 224 203 236 226 220 305 274 102 234 47 245 272 248 277 290 261 258 245 249 275 317 334 350 18 359
319 301 223 255 258 226 149 158 152 151 109 101 92 196 235 242 90 233 227 266 276 318 278 98 332 1 292 210 276 252 205 295 120 99 193 150 238 196 208 226 218 112 110 75 235 73 208 238 252 217 163 145 180 193 115 99 98 197 162 70 52 236 116 239 200 193 273 295 330 233 213 215 235 341 297 242 264 280 302 321 353 342 25 50 54 31 11 8
314 281 181 220 192 205 157 160 158 150 133 122 147 217 230 201 236 177 235 182 58 210 273 334 179 305 256 263 323 197 305 188 287 128 265 201 257 233 230 213 174 183 159 194 171 219 331 273 258 16 41 165 200 140 210 149 242 197 104 200 216 122 163 282 325 218 82 42 256 167 294 271 296 288 275 307 71 14 3 3 16 19 46 64 44 29 32 27
340 296 202 196 200 178 156 156 160 138 137 158 203 243 227 253 202 177 235 158 227 142 89 250 243 194 215 273 192 350 229 90 251 148 265 181 299 203 235 259 175 197 203 169 279 188 238 271 175 118 251 266 126 145 157 9 152 103 186 238 129 167 113 156 231 337 194 232 250 187 250 274 323 288 41 28 111 40 21 8 328 325 46 42 43 43 49 39
311 290 265 239 213 154 156 163 146 149 152 195 221 234 92 230 247 201 160 111 330 12 103 180 271 172 270 243 274 175 257 168 270 121 252 181 255 140 125 228 210 184 215 357 189 280 158 278 257 217 202 197 23 126 315 280 223 180 186 277 140 234 250 240 86 248 245 241 270 228 251 262 247 263 276 274 270 310 17 357 21 19 22 18 28 39 48 41
288 286 308 253 241 158 156 155 160 154 171 208 224 249 211 236 128 183 204 134 104 97 235 240 231 273 208 224 218 202 180 187 205 202 226 238 209 203 198 173 313 163 8 150 241 238 83 252 287 5 140 175 85 118 217 215 337 74 31 318 173 107 222 203 191 198 67 263 252 234 191 249 212 242 265 272 318 194 6 24 27 38 33 30 28 27 29 33
178 91 272 311 246 146 147 153 161 181 200 214 221 226 118 65 237 203 187 187 267 177 247 250 199 251 253 244 177 264 262 188 173 241 180 275 233 269 185 280 178 217 86 319 213 134 245 174 254 165 312 94 211 183 209 170 183 197 201 252 219 193 244 108 342 171 227 259 247 272 257 234 234 237 261 313 26 27 44 43 48 50 47 39 35 31 32 40
252 108 258 60 125 136 140 152 180 201 211 245 252 249 243 252 70 314 260 220 224 287 228 192 171 224 232 337 273 159 255 218 213 226 205 278 209 286 248 193 187 136 105 51 56 295 323 236 240 216 287 215 233 214 181 192 194 194 190 213 213 221 267 261 256 179 221 224 247 246 256 235 261 284 288 13 82 57 50 80 65 57 54 47 37 39 43 44
166 106 267 15 140 150 148 177 216 187 226 212 223 200 250 340 279 256 167 284 175 249 35 212 234 244 260 260 252 258 247 243 229 248 252 239 229 231 252 143 178 157 145 199 193 216 177 183 268 233 229 241 228 244 193 207 209 222 192 232 207 214 196 222 254 228 240 230 260 257 275 244 237 304 301 339 54 58 33 53 61 45 45 42 39 35 29 36
179 201 285 337 201 166 165 216 205 209 219 257 15 286 181 293 203 213 71 163 297 195 284 227 211 244 250 242 223 250 215 260 201 246 232 249 248 240 332 14 35 46 21 325 353 264 89 202 247 254 254 290 279 272 272 132 151 296 265 208 136 212 203 233 251 252 258 252 259 258 247 301 172 233 357 70 77 63 51 43 42 35 29 25 33 25 25 24
27 313 323 344 11 206 191 200 208 210 236 267 255 255 200 205 246 287 206 241 164 273 188 237 339 230 272 290 338 268 162 281 209 240 255 254 262 358 25 31 344 42 212 270 270 314 324 249 195 274 261 332 301 328 3 359 57 213 220 233 229 263 286 281 322 80 256 225 249 253 260 253 196 341 85 82 74 55 53 45 44 42 18 21 15 16 14 15
41 313 274 302 0 359 212 251 217 221 224 233 238 252 252 243 221 241 258 258 215 205 13 273 223 233 249 169 234 204 186 203 286 317 223 255 262 3 7 47 30 109 124 151 106 324 87 289 173 210 236 256 257 246 264 265 235 234 277 276 278 203 251 268 262 251 257 212 231 244 264 248 253 31 74 78 81 71 52 53 47 54 34 17 16 9 12 13
257 113 296 352 4 52 282 155 97 239 213 241 256 251 263 264 268 234 188 258 227 205 218 242 182 133 172 282 255 253 265 172 194 266 19 271 282 326 201 20 76 129 237 69 2 90 239 290 292 278 266 261 265 297 102 68 306 194 279 334 295 273 188 231 265 257 242 259 250 247 258 273 267 281 312 353 81 104 96 51 54 29 21 11 20 14 17 22
266 103 178 257 354 322 239 30 2 316 205 4 234 191 226 233 254 292 180 253 298 192 246 210 199 202 245 207 240 268 239 263 220 240 222 244 254 241 325 128 104 32 260 139 1 78 198 238 229 253 249 257 264 268 287 297 280 272 268 263 273 279 283 273 252 253 285 299 264 240 262 281 290 295 282 307 332 93 110 112 72 70 11 11 345 353 14 23
80 256 87 241 151 246 147 248 57 253 281 164 234 304 294 271 239 240 350 142 261 324 183 319 206 214 239 240 275 268 99 257 179 242 217 254 12 319 357 356 57 334 44 331 319 138 188 261 277 275 270 276 283 291 309 305 254 268 269 280 276 273 263 256 257 261 265 253 273 290 297 287 282 273 250 197 165 209 116 100 145 197 241 310 336 358 2 350
119 314 130 330 124 296 80 4 360 349 286 251 268 306 258 243 251 209 136 316 12 314 95 290 220 347 330 322 276 254 270 300 267 228 219 287 257 318 303 336 152 44 45 21 347 213 356 256 252 269 290 299 299 292 303 306 306 294 282 272 278 270 264 260 267 269 262 263 269 275 272 267 272 255 163 182 177 152 167 192 205 214 244 236 251 270 315 299
317 66 313 18 69 355 268 22 39 354 287 284 260 224 254 247 266 300 333 289 275 284 113 255 341 12 352 19 332 253 278 275 274 265 254 122 287 144 215 216 276 343 49 2 328 302 211 274 10 103 294 272 270 284 288 282 290 286 289 287 272 267 267 269 275 271 271 268 267 263 263 267 251 136 129 142 184 242 156 214 217 216 225 237 248 273 248 272
212 89 130 90 12 209 86 349 143 156 285 225 218 274 260 259 267 87 246 38 207 243 53 82 7 342 349 67 356 328 22 357 21 20 35 8 249 360 55 293 80 323 333 354 20 319 334 278 344 353 307 279 278 283 294 316 306 296 287 279 270 263 266 258 254 256 259 266 269 275 269 260 109 119 342 138 235 201 228 235 217 226 217 238 255 282 281 284
62 286 105 110 161 267 129 120 114 113 238 238 187 253 143 71 35 353 281 92 42 93 102 89 344 13 300 324 302 113 113 90 164 234 262 242 233 259 220 244 283 266 307 287 274 294 241 298 315 301 285 264 279 286 338 341 320 288 264 251 256 266 258 260 261 264 258 276 275 261 264 24 167 179 92 229 162 261 232 272 255 234 214 215 234 249 259 265